Regional Weather Roundup
Issued by NWS Kansas City/Pleasant Hill, MO

Home | Current Version | Previous Version | Graphics & Text | Print | Product List | Glossary Off
Versions: 1 2 3 4 5 6 7 8 9 10 11 12 13 14 15 16 17 18 19 20 21 22 23 24 25 26 27 28 29 30 31 32 33 34 35 36 37 38 39 40 41 42 43 44 45 46 47 48 49 50

167
ASUS43 KEAX 172310
RWREAX

WEATHER ROUNDUP FOR EASTERN KANSAS AND NORTHWEST MISSOURI
NATIONAL WEATHER SERVICE KANSAS CITY/PLEASANT HILL MO
500 PM CST TUE JAN 17 2017

KSZ040-057-103>105-MOZ028-029-037-043-180000-
...KANSAS CITY METROPOLITAN AREA...

CITY           SKY/WX    TMP DP  RH WIND       PRES   REMARKS
K.C. INTL      CLOUDY    38  32  79 W3        30.12R
K.C. DOWNTOWN  CLOUDY    40  35  83 CALM      30.13R
LEES SUMMIT    CLOUDY    39  35  86 W7        30.12F WCI  34
OLATHE - IXD   CLEAR     41  35  79 CALM      30.12F
OLATHE - OJC   PTCLDY    39  36  89 W3        30.11F
LAWRENCE       CLEAR     42  36  79 NW3       30.12F

$$

MOZ001>008-011>017-020>025-030>033-038>040-044>046-053-054-180000-
...NORTHERN AND CENTRAL MISSOURI...

CITY           SKY/WX    TMP DP  RH WIND       PRES   REMARKS
ST. JOSEPH     CLOUDY    36  34  92 W7        30.14R WCI  30
MOSBY          CLOUDY    37  34  87 W6        30.14S WCI  33
WARRENSBURG    CLOUDY    37  34  87 W5        30.13F WCI  34
WHITEMAN AFB   CLOUDY    38  38 100 W9        30.12S WCI  31
CLINTON        CLOUDY    37  36  93 W8        30.15S WCI  31
SEDALIA        CLOUDY    39  36  89 W10       30.14R WCI  32
WARSAW         NOT AVBL
CHILLICOTHE      N/A     37  35  92 VRB5      30.14R WCI  33
KIRKSVILLE     CLOUDY    37  35  92 W7        30.10R FOG     WCI  32

$$

MOZ041-047>049-056>058-063>065-088>090-097-180000-
...EASTERN AND SOUTHERN MISSOURI...

CITY           SKY/WX    TMP DP  RH WIND       PRES   REMARKS
ST. LOUIS INTL CLOUDY    43  37  79 W15       30.09R
SPIRIT OF STL  CLOUDY    42  38  85 W10       30.10R
COLUMBIA       CLOUDY    38  36  92 W9        30.11R WCI  31
JEFFERSON CITY CLOUDY    41  35  79 W9        30.14R
ROLLA          CLOUDY    38  35  89 W13       30.12R WCI  30
OSAGE BEACH    CLOUDY    39  34  82 W5        30.16R
SPRINGFIELD    CLOUDY    38  35  89 W8        30.13F WCI  32
BRANSON        CLOUDY    39  36  87 W6        30.15R WCI  35
JOPLIN         CLOUDY    39  36  89 W6        30.16R WCI  35
WEST PLAINS    CLOUDY    41  36  82 W7        30.14R

$$

IAZ060-094-KSZ022-034>040-054-083-096-NEZ052-066-093-180000-
...KANSAS...SOUTHEAST NEBRASKA AND IOWA...

CITY           SKY/WX    TMP DP  RH WIND       PRES   REMARKS
TOPEKA         CLEAR     45  33  63 NW6       30.11S
MANHATTAN      CLEAR     44  31  60 W5        30.12R
EMPORIA        CLEAR     47  32  56 W5        30.10S
CHANUTE        CLEAR     43  37  79 SE6       30.14R
WICHITA        PTCLDY    50  31  48 N8        30.10S
OMAHA          PTCLDY    34  27  75 E3        30.10R
LINCOLN        CLEAR     36  30  79 SW7       30.11R WCI  30
FALLS CITY     CLEAR     34  30  85 W3        30.12R
LAMONI         CLOUDY    35  34  96 W10       30.08R WCI  27
DES MOINES     CLOUDY    36  33  89 W7        30.08R WCI  30

$$





USA.gov is the U.S. government's official web portal to all federal, state and local government web resources and services.